Location: Apalco
(33.3585°N, 93.4602°W)
Time: 05:14:24
(UTC+00:00)

Envisat - Pass Details

Date: 03 October 2021
Orbit: 764 x 766 km, 98.2° (Epoch: 27 October)

Event Time Altitude Azimuth Distance (km) Brightness Sun altitude
Rises 10:43:22 0° 22° (NNE) 3,233 6.6 -18.8°
Reaches altitude 10° 10:45:50 10° 30° (NNE) 2,303 6.0 -18.3°
Maximum altitude 10:50:32 38° 98° (E) 1,159 4.5 -17.3°
Drops below altitude 10° 10:55:12 10° 166° (SSE) 2,290 5.6 -16.4°
Sets 10:57:39 0° 174° (S) 3,212 6.2 -15.9°
